Бьютт

США     46°00′18″N   112°32′20″W
темп.,
°C
ветер,
м/с
пор.,
м/с
влажн.,
%
обл.,
%
осадки,
мм/ч
давл.,
гПа
погр.,
м
7 июля, чт
чт700:00+11с118449 0.0 101411
03:00+10ююз11865 0.2 101511
06:00+10юв11836 0.3 101511
09:00+17юв22600 0.0 1014441
12:00+23юз15378 0.0 10121693
15:00+18вюв345698 0.3 1013340
18:00+14ссв2275100 9.8 1016131
21:00+13зсз3584100 0.3 1017152
8 июля, пт
пт800:00+11ююв2288100 0.4 101820
03:00+9ю01870 0.0 101711
06:00+9ююв11847 0.0 101711
09:00+16ююв22622 0.0 1016298
12:00+24ююв1435100 0.0 10131455
15:00+25ю473150 0.0 10091510
18:00+23в123655 0.1 1012685
21:00+17ююз117050 0.1 101411
9 июля, сб
сб900:00+13сз11782 0.1 101611
03:00+12сз11830 0.0 101711
06:00+10з11831 0.0 101710
09:00+18ю125311 0.0 1016347
12:00+25зюз15275 0.0 10131954
15:00+25ссв2526100 0.0 10112789
18:00+21св113899 0.2 1012231
21:00+14с3484100 1.9 1016139
10 июля, вс
вс1000:00+11зсз118798 2.1 101810
03:00+10з11885 0.0 101810
06:00+9зсз11873 0.0 101910
09:00+14зсз23682 0.1 1019350
12:00+20з79385 0.1 10172099
15:00+22зсз8102996 0.0 10152765
18:00+20сз8103018 0.0 10162073
21:00+14ссз494986 0.0 1019176
11 июля, пн
пн1100:00+11ссз2257100 0.0 102214
03:00+9сз11675 0.0 102210
06:00+8зсз11745 0.0 102310
09:00+14зсз22550 0.0 1022466
12:00+18зсз23390 0.0 10201090
15:00+23сз56310 0.0 10181543
18:00+22ссз44330 0.0 10171237
21:00+16ссв33520 0.0 101919